KEPLER-21 (56218 NORAD) Tracking and Keplerian Element Data

This shows tracking and keplerian element data for the satellite.

Feedback or suggestion? Click here.




ElementValue
Catalog56218
NameKEPLER-21
Epoch Orbit317
Epoch Day122.15920661
Epoch Year2023
RAAN17.7419
Inclination97.4057
Eccentricity0.0010214
Argument of Perigee165.1628
Mean Anonmoly194.7278
Mean Motion15.2160376
Decay Rate7.055E-05
L11 56218U 23054AS 23122.15920661 .00007055 00000+0 31519-3 0 9994
L22 56218 97.4057 17.7419 0010214 165.1628 194.7278 15.21603760 3172



Live tracking and technical data element details for KEPLER-21 (NORAD 56218). KEPLER-21 can be tracked NOW for your location showing map with azimuth and elevation plus other details from your city location.







IsCatalogInMostPopularTable: catalog: 56218, numindb: 4
Update: records affected: 1



GetName: 56218 KEPLER-21

Hit Count: updated at: Wed, 07 Jun 2023 09:17:20 GMT